Location: Cruquius
(52.3348°N, 4.6319°E)
Time: 14:00:09
(UTC+00:00)

Cosmos 2228 Rocket - Pass Details

Date: 12 May 2021
Orbit: 618 x 651 km, 82.5° (Epoch: 19 June)

Event Time Altitude Azimuth Distance (km) Brightness Sun altitude
Exits shadow 22:07:18 13° 214° (SW) 1,814 5.1 -16.6°
Maximum altitude 22:11:05 47° 286° (WNW) 844 4.0 -16.8°
Drops below altitude 10° 22:15:27 10° 1° (N) 2,035 6.8 -17.1°
Sets 22:17:47 0° 8° (N) 2,954 7.7 -17.2°
